Tracking 30923 objects as of 1-Jul-2025
HD Live streaming from Space Station
objects crossing your sky now

STARLINK-30215

Track STARLINK-30215 now!
10-day predictions
STARLINK-30215 is classified as:


NORAD ID: 57445
Int'l Code: 2023-105R
Perigee: 565.2 km
Apogee: 567.2 km
Inclination: 43.0 °
Period: 95.8 minutes
Semi major axis: 6937 km
RCS: Unknown
Launch date: July 24, 2023
Source: United States (US)
Launch site: AIR FORCE EASTERN TEST RANGE (AFETR)
Your satellite tracking list
Your tracking list is empty




NASA's NSSDC Master Catalog

Two Line Element Set (TLE):
1 57445U 23105R   25181.75013462  .00000363  00000-0  41938-4 0  9992
2 57445  43.0028 190.5042 0001402 285.0695  74.9992 15.02536004107506
Source of the keplerian elements: AFSPC